Starlink 31474

operational
NORAD ID: 59304 Int'l Des: 2024-056 Owner: SPXS Country: US Constellation: starlink
LEOCIRCULAR

Starlink 31474について

説明を読み込み中...

リアルタイム位置

3D地球を読み込み中...

次回通過

高度履歴

Altitude vs Time

uPlot chart will show altitude changes over time

軌道要素

1 59304U 24056J 25259.04488597 .00010560 00000-0 39320-3 0 9998
2 59304 43.0054 130.1723 0000721 277.1112 82.9657 15.27538916 84520
Epoch: Sep 16, 2025 • Age: 19 hours

現在のステータス

高度 484.4 km
速度 7.62 km/s
衛星直下点 -9.36°S, 178.12°W
打ち上げ日 Mar 24, 2024
運用期間 1.4 years
タイプ internet

技術仕様

分類 Payload
質量 730.00 kg
乾燥質量 700.00 kg
総質量 730.00 kg
長さ 0.30 m
直径 4.10 m
スパン 29.00 m
形状 Box + pan
製造者 SPXS
バスタイプ Starlink V2M
フェーズステータス In Orbit
所有者/国 SPXS/US

大規模コンステレーション

Loading constellations...